Regional Weather Roundup
Issued by NWS

Home | Current Version | Previous Version | Text Only | Print | Product List | Glossary Off
Versions: 1 2 3 4 5 6 7 8 9 10 11 12 13 14 15 16 17 18 19 20 21 22 23 24 25 26 27 28 29 30 31 32 33 34 35 36 37 38 39 40 41 42 43 44 45 46 47 48 49 50

850
ASUS44 KLIX 292105
RWRLA
LOUISIANA WEATHER ROUNDUP
NATIONAL WEATHER SERVICE NEW ORLEANS LA
400 PM CDT WED OCT 29 2014

NOTE: "FAIR" INDICATES FEW OR NO CLOUDS BELOW 12,000 FEET WITH NO
      SIGNIFICANT WEATHER AND/OR OBSTRUCTIONS TO VISIBILITY.
      SKY/WX - SKY CONDITION AND SIGNIFICANT WEATHER.
      TMP - AIR TEMPERATURE.    DP   - DEWPOINT TEMPERATURE.
      RH  - RELATIVE HUMIDITY.  PRES - PRESSURE.
      HX  - HEAT INDEX.         WCI  - WIND CHILL INDEX.

*  THESE STATIONS ARE NOT NWS OR FAA STATIONS AND ARE NOT UNDER
   NWS QUALITY CONTROL.

LAZ040-048-061>063-065-066-069-292200-
SOUTHEAST LOUISIANA

CITY           SKY/WX    TMP DP  RH WIND       PRES   REMARKS
N.O. AUDUBON     N/A     85  67  55 MISG        N/A
N.O. INTL ARPT MOSUNNY   80  63  55 NW7       30.00F
N.O. LAKEFRONT MOSUNNY   80  67  64 W3        30.01F
N.O. DOWNTOWN* FAIR      84  63  48 N6        30.01F
SLIDELL        MOSUNNY   82  64  54 W3        29.99F
BATON ROUGE    PTSUNNY   78  67  68 NW10      30.03R
BOOTHVILLE     SUNNY     80  67  64 NW7       30.02F
BELLE CHASSE   MOSUNNY   84  61  45 VRB5      30.00F
BOGALUSA*        N/A     79  66  65 N9        30.03S
NEW ROADS*     MOCLDY    73  64  73 NW9       30.06S
GONZALES*      FAIR      82  66  58 NW8       30.00F
HAMMOND*       PTSUNNY   79  66  65 N7        30.03F
HOUMA*         MOSUNNY   84  63  48 NW7       30.00F
PORT FOURCHON* CLOUDY    81  68  65 SE7       30.04F

$$

LAZ041-044-053-054-292200-
SOUTHWEST LOUISIANA

CITY           SKY/WX    TMP DP  RH WIND       PRES   REMARKS
LAKE CHARLES   MOSUNNY   78  68  71 N15       30.04S
LAFAYETTE      MOSUNNY   80  67  64 N15       30.03S
PATTERSON      SUNNY     81  64  57 NW3       30.04F
SALT POINT       N/A     81  71  71 CALM      30.01F
NEW IBERIA     PTSUNNY   81  68  64 N6        30.03S
CHENAULT AIRPK MOSUNNY   68  68 100 N10       30.05S

$$

LAZ027-028-292200-
CENTRAL LOUISIANA

CITY           SKY/WX    TMP DP  RH WIND       PRES   REMARKS
FORT POLK      CLOUDY    68  61  76 VRB7      30.09F
ALEXANDRIA INT CLOUDY    71  54  54 NE12      30.08F
ALEXANDRIA     MOSUNNY   73  56  54 N7        30.09F

$$

LAZ001-002-292200-
NORTHWEST LOUISIANA

CITY           SKY/WX    TMP DP  RH WIND       PRES   REMARKS
SHREVEPORT     SUNNY     75  44  33 NE13G18   30.12F
BARKSDALE AFB  SUNNY     75  42  30 VRB5      30.13F
DTN SHREVEPORT SUNNY     73  44  35 NE9       30.13F

$$

LAZ014-016-292200-
NORTHEAST LOUISIANA

CITY           SKY/WX    TMP DP  RH WIND       PRES   REMARKS
MONROE         SUNNY     74  43  32 NE9       30.13F
TALLULAH       MOSUNNY   73  47  39 NE10      30.11F

$$




USA.gov is the U.S. government's official web portal to all federal, state and local government web resources and services.